Location: Lugano
(46.0000°N, 8.9670°E)
Time: 15:42:56
(UTC+02:00)

Envisat - Pass Details

Date: 15 March 2026
Orbit: 761 x 762 km, 98.4° (Epoch: 19 April)

Event Time Altitude Azimuth Distance (km) Brightness Sun altitude
Rises 02:04:54 0° 25° (NNE) 3,235 7.1 -41.8°
Reaches altitude 10° 02:07:40 10° 40° (NE) 2,303 6.1 -41.6°
Enters shadow 02:08:48 15° 50° (NE) 1,979 5.6 -41.5°
